YAOGAN-35 04A (53522 NORAD) Tracking and Keplerian Element Data

This shows tracking and keplerian element data for the satellite.

Feedback or suggestion? Click here.




ElementValue
Catalog53522
NameYAOGAN-35 04A
Epoch Orbit1419
Epoch Day324.73391647
Epoch Year2022
RAAN342.8915
Inclination35.0021
Eccentricity0.000371
Argument of Perigee21.9452
Mean Anonmoly338.1152
Mean Motion15.230129
Decay Rate7.783E-05
L11 53522U 22100A 22324.73391647 .00007783 00000+0 32413-3 0 9995
L22 53522 35.0021 342.8915 0003710 21.9452 338.1152 15.23012900 14197



Live tracking and technical data element details for YAOGAN-35 04A (NORAD 53522). YAOGAN-35 04A can be tracked NOW for your location showing map with azimuth and elevation plus other details from your city location.







IsCatalogInMostPopularTable: catalog: 53522, numindb: 3
Update: records affected: 1



GetName: 53522 YAOGAN-35 04A

Hit Count: updated at: Tue, 29 Nov 2022 00:43:07 GMT